Weather History for Dallas Redbird, TX

Change the Weather History Date:

Monday, November 25, 2013

  Actual Average Record
Temperature  
Mean Temperature 35 °F -  
Max Temperature 37 °F 60 °F 75 °F (2010)
Min Temperature 33 °F 42 °F 30 °F (1996)
Degree Days  
Heating Degree Days 30    
Moisture  
Dew Point 31 °F    
Average Humidity 86    
Maximum Humidity 93    
Minimum Humidity 70    
Precipitation  
Precipitation 0.69 in - - ()
Sea Level Pressure  
Sea Level Pressure 30.25 in    
Wind  
Wind Speed 4 mph (NE)    
Max Wind Speed 12 mph    
Max Gust Speed 20 mph    
Visibility 6 miles    
Events Rain    
Averages and records for this station are not official NWS values.
T = Trace of Precipitation, MM = Missing Value Source: NWS Daily Summary

Daily Weather History Graph

Daily Weather History Graph

Search for Another Location

Airport:

Trip Planner

Search our weather history database for the weather conditions in past years. The results will help you decide how hot, cold, wet, or windy it might be!

Date:

Astronomy

Nov. 25, 2013 Rise Set
Actual Time 7:06 AM CST 5:22 PM CST
Civil Twilight 6:40 AM CST 5:48 PM CST
Nautical Twilight 6:09 AM CST 6:19 PM CST
Astronomical Twilight 5:40 AM CST 6:48 PM CST
Moon No Moon Rise 12:37 PM CST (11/25)
Length of Visible Light 11h 08m
Length of Day
10h 15m
Waning Gibbous, 51% of the Moon is Illuminated
Nov 25
Waning Gibbous
Nov 25
Last Quarter
Dec 2
New
Dec 9
First Quarter
Dec 17
Full

Hourly Weather History & Observations

Time (CST) Temp. Windchill Dew Point Humidity Pressure Visibility Wind Dir Wind Speed Gust Speed Precip Events Conditions
12:29 AM 35.6 °F - 26.6 °F 70% 30.34 in 6.0 mi Calm Calm - 0.00 in Rain Light Rain
12:49 AM 33.8 °F 28.6 °F 26.6 °F 75% 30.32 in 4.0 mi ESE 5.8 mph - 0.02 in Rain Light Rain
12:53 AM 33.1 °F 27.7 °F 28.0 °F 82% 30.33 in 4.0 mi East 5.8 mph - 0.03 in Rain Rain
1:37 AM 33.8 °F - 28.4 °F 81% 30.32 in 5.0 mi Calm Calm - 0.07 in Rain Light Freezing Rain
1:53 AM 33.1 °F - 28.9 °F 85% 30.32 in 5.0 mi Calm Calm - 0.09 in Rain Light Freezing Rain
2:00 AM 33.8 °F 29.6 °F 28.4 °F 81% 30.30 in 6.0 mi East 4.6 mph - 0.01 in Rain Light Freezing Rain
2:06 AM 33.8 °F - 28.4 °F 81% 30.30 in 5.0 mi Calm Calm - 0.02 in Rain Light Freezing Rain
2:23 AM 33.8 °F 30.8 °F 28.4 °F 81% 30.30 in 4.0 mi East 3.5 mph - 0.05 in Rain Light Freezing Rain
2:37 AM 33.8 °F 30.8 °F 30.2 °F 87% 30.29 in 4.0 mi East 3.5 mph - 0.10 in Rain Light Freezing Rain
2:46 AM 33.8 °F 30.8 °F 30.2 °F 87% 30.28 in 4.0 mi East 3.5 mph - 0.13 in Rain Light Freezing Rain
2:51 AM 33.8 °F 29.6 °F 30.2 °F 87% 30.28 in 5.0 mi East 4.6 mph - 0.14 in Rain Rain
2:53 AM 33.1 °F 30.0 °F 30.0 °F 89% 30.30 in 5.0 mi ESE 3.5 mph - 0.14 in Rain Rain
3:00 AM 33.8 °F - 30.2 °F 87% 30.30 in 4.0 mi Calm Calm - 0.02 in Rain Rain
3:37 AM 33.8 °F - 30.2 °F 87% 30.28 in 4.0 mi Calm Calm - 0.07 in Rain Rain
3:53 AM 33.1 °F - 28.9 °F 85% 30.30 in 6.0 mi Calm Calm - 0.09 in Rain Rain
4:11 AM 33.8 °F 27.7 °F 30.2 °F 87% 30.25 in 3.0 mi ENE 6.9 mph - 0.07 in Rain Heavy Rain
4:53 AM 33.1 °F 28.7 °F 30.0 °F 89% 30.27 in 4.0 mi NNE 4.6 mph - 0.19 in Rain Rain
5:02 AM 33.8 °F 29.6 °F 30.2 °F 87% 30.26 in 4.0 mi NNE 4.6 mph - 0.03 in Rain Rain
5:32 AM 33.8 °F - 30.2 °F 87% 30.26 in 10.0 mi Calm Calm - 0.04 in Rain Light Rain
5:53 AM 34.0 °F - 30.9 °F 89% 30.28 in 6.0 mi Calm Calm - 0.04 in Rain Light Rain
5:56 AM 33.8 °F - 30.2 °F 87% 30.26 in 5.0 mi Calm Calm - 0.01 in Rain Light Rain
6:15 AM 33.8 °F 29.6 °F 30.2 °F 87% 30.25 in 4.0 mi ENE 4.6 mph - 0.03 in Rain Light Freezing Rain
6:27 AM 33.8 °F 30.8 °F 30.2 °F 87% 30.26 in 4.0 mi East 3.5 mph - 0.04 in Rain Light Freezing Rain
6:41 AM 33.8 °F 29.6 °F 30.2 °F 87% 30.24 in 5.0 mi ENE 4.6 mph - 0.05 in Rain Light Freezing Rain
6:46 AM 33.8 °F 29.6 °F 30.2 °F 87% 30.25 in 4.0 mi ENE 4.6 mph - 0.06 in Rain Light Freezing Rain
6:51 AM 33.8 °F 30.8 °F 30.2 °F 87% 30.25 in 3.0 mi ENE 3.5 mph - 0.06 in Rain Light Freezing Rain
6:53 AM 33.1 °F 28.7 °F 30.0 °F 89% 30.26 in 4.0 mi NE 4.6 mph - 0.06 in Rain Light Freezing Rain
7:09 AM 33.8 °F 30.8 °F 30.2 °F 87% 30.26 in 4.0 mi NE 3.5 mph - 0.02 in Rain Light Freezing Rain
7:18 AM 33.8 °F 29.6 °F 30.2 °F 87% 30.25 in 4.0 mi ENE 4.6 mph - 0.03 in Rain Light Freezing Rain
7:53 AM 34.0 °F 29.8 °F 30.9 °F 89% 30.26 in 5.0 mi ENE 4.6 mph - 0.03 in Rain Light Rain
8:08 AM 33.8 °F 30.8 °F 30.2 °F 87% 30.25 in 5.0 mi ESE 3.5 mph - 0.00 in Rain Light Rain
8:53 AM 35.1 °F 31.0 °F 32.0 °F 89% 30.27 in 4.0 mi East 4.6 mph - 0.01 in Rain Light Rain
9:00 AM 33.8 °F 28.6 °F 30.2 °F 87% 30.26 in 3.0 mi East 5.8 mph - 0.00 in   Overcast
9:14 AM 35.6 °F 30.7 °F 32.0 °F 87% 30.25 in 2.5 mi East 5.8 mph - 0.00 in   Overcast
9:30 AM 35.6 °F 31.7 °F 32.0 °F 87% 30.26 in 1.8 mi ENE 4.6 mph - 0.00 in   Overcast
9:40 AM 35.6 °F 30.7 °F 32.0 °F 87% 30.25 in 2.5 mi ENE 5.8 mph - 0.00 in   Overcast
9:49 AM 35.6 °F 31.7 °F 32.0 °F 87% 30.26 in 3.0 mi East 4.6 mph - 0.00 in   Overcast
9:53 AM 35.1 °F 32.2 °F 32.0 °F 89% 30.27 in 3.0 mi East 3.5 mph - 0.00 in   Overcast
10:15 AM 35.6 °F 31.7 °F 33.8 °F 93% 30.24 in 2.5 mi East 4.6 mph - N/A   Overcast
10:27 AM 35.6 °F 31.7 °F 33.8 °F 93% 30.24 in 3.0 mi East 4.6 mph - N/A   Overcast
10:53 AM 36.0 °F - 34.0 °F 93% 30.25 in 4.0 mi Calm Calm - N/A   Overcast
11:28 AM 37.4 °F 33.8 °F 33.8 °F 87% 30.23 in 10.0 mi ESE 4.6 mph - N/A   Overcast
11:53 AM 37.0 °F 34.5 °F 33.1 °F 86% 30.23 in 10.0 mi Variable 3.5 mph - N/A   Overcast
12:53 PM 37.0 °F 33.3 °F 34.0 °F 89% 30.20 in 10.0 mi ESE 4.6 mph - N/A   Overcast
1:53 PM 37.9 °F 34.4 °F 34.0 °F 86% 30.17 in 10.0 mi East 4.6 mph - N/A   Overcast
2:53 PM 37.9 °F 33.5 °F 34.0 °F 86% 30.17 in 8.0 mi North 5.8 mph - N/A   Overcast
3:53 PM 37.9 °F 33.5 °F 34.0 °F 86% 30.16 in 10.0 mi North 5.8 mph - N/A   Overcast
4:53 PM 37.9 °F 32.7 °F 34.0 °F 86% 30.15 in 10.0 mi NNE 6.9 mph - N/A   Overcast
5:53 PM 37.9 °F 33.5 °F 34.0 °F 86% 30.16 in 10.0 mi North 5.8 mph - N/A   Overcast
6:06 PM 37.4 °F 32.1 °F 33.8 °F 87% 30.16 in 10.0 mi NNW 6.9 mph - N/A   Overcast
6:53 PM 37.9 °F 32.1 °F 33.1 °F 83% 30.17 in 10.0 mi North 8.1 mph - 0.01 in   Overcast
7:53 PM 37.9 °F 32.7 °F 33.1 °F 83% 30.19 in 10.0 mi North 6.9 mph - N/A   Overcast
8:02 PM 37.4 °F 29.8 °F 33.8 °F 87% 30.17 in 10.0 mi North 11.5 mph - N/A   Overcast
8:53 PM 37.9 °F 30.5 °F 33.1 °F 83% 30.20 in 10.0 mi North 11.5 mph - N/A   Overcast
9:16 PM 37.4 °F 32.1 °F 33.8 °F 87% 30.20 in 10.0 mi North 6.9 mph - N/A   Overcast
9:53 PM 37.9 °F 31.5 °F 33.1 °F 83% 30.21 in 9.0 mi North 9.2 mph - N/A   Overcast
10:20 PM 37.4 °F 31.4 °F 33.8 °F 87% 30.19 in 10.0 mi North 8.1 mph - N/A   Overcast
10:49 PM 37.4 °F 30.3 °F 33.8 °F 87% 30.18 in 10.0 mi North 10.4 mph 19.6 mph N/A   Overcast
10:53 PM 37.0 °F 31.0 °F 33.1 °F 86% 30.19 in 10.0 mi North 8.1 mph 18.4 mph N/A   Overcast
11:53 PM 37.0 °F 29.3 °F 32.0 °F 82% 30.19 in 10.0 mi North 11.5 mph - N/A   Overcast